This demonstration page uses our WeatherBlox Daily Observations layout. Learn more.

Left ArrowRight Arrow

39.51506, -84.39828

Hourly Observations for March 10, 2015

Temp ( °F °C ) Dew Point ( °F °C ) Humidity (%) Winds ( mph kmh ) Pressure ( in mb ) Visibility ( mi km ) Precip ( " mm )
12:15 am 00:15 Cloudy 40 4.7 35 1.7 81 81 ENE 3 6 30.21 1023 10 16 N/A
12:35 am 00:35 Cloudy 40 4.6 35 1.8 82 82 NE 3 6 30.21 1023 10 16 N/A
12:55 am 00:55 Cloudy 40 4.7 35 1.6 81 81 N N/A 30.21 1023 10 16 N/A
1:15 am 01:15 Cloudy 40 4.7 35 1.8 82 82 N N/A 30.21 1023 10 16 N/A
1:35 am 01:35 Cloudy 40 4.7 36 2 83 83 N N/A 30.21 1023 10 16 N/A
1:55 am 01:55 Cloudy 40 4.7 36 2 83 83 N N/A 30.21 1023 10 16 N/A
2:15 am 02:15 Cloudy 40 4.5 35 1.8 83 83 N N/A 30.21 1023 10 16 N/A
2:35 am 02:35 Cloudy 40 4.7 36 2 83 83 N N/A 30.21 1023 10 16 N/A
2:55 am 02:55 Cloudy 40 4.7 36 2 83 83 N N/A 30.15 1021 10 16 N/A
3:15 am 03:15 Cloudy 40 4.7 36 2 83 83 N N/A 30.15 1021 10 16 N/A
3:35 am 03:35 Cloudy 40 4.2 35 1.6 83 83 N N/A 30.18 1022 10 16 N/A
3:55 am 03:55 Cloudy 40 4.7 36 2 83 83 N N/A 30.15 1021 10 16 N/A
4:15 am 04:15 Cloudy 40 4.7 36 2.1 83 83 N N/A 30.12 1020 10 16 N/A
4:35 am 04:35 Cloudy 39 4 35 1.5 84 84 N N/A 30.15 1021 10 16 N/A
4:55 am 04:55 Cloudy 40 4.6 36 2.1 84 84 N N/A 30.12 1020 10 16 N/A
5:15 am 05:15 Cloudy 39 4 35 1.4 83 83 N N/A 30.15 1021 10 16 N/A
5:35 am 05:35 Cloudy 40 4.7 35 1.9 82 82 N N/A 30.12 1020 10 16 N/A
5:55 am 05:55 Cloudy 40 4.5 35 1.9 83 83 N N/A 30.12 1020 10 16 N/A
6:15 am 06:15 Cloudy 40 4.2 35 1.7 84 84 N N/A 30.12 1020 7 11 N/A
6:35 am 06:35 Cloudy 39 4.1 35 1.8 85 85 N N/A 30.12 1020 7 11 N/A
6:55 am 06:55 Cloudy with Light Snow 39 4 35 1.7 85 85 N N/A 30.12 1020 4 6 N/A
7:15 am 07:15 Cloudy with Light Snow 39 4 36 2 87 87 N N/A 30.12 1020 3 5 N/A
7:35 am 07:35 Cloudy with Light Snow 39 4 36 2 87 87 N N/A 30.12 1020 3 5 N/A
7:55 am 07:55 Cloudy with Light Snow 39 4 36 2 87 87 N N/A 30.12 1020 3 4 N/A
8:15 am 08:15 Cloudy with Light Snow 39 4 36 2.1 88 88 N N/A 30.12 1020 2 3 N/A
8:35 am 08:35 Cloudy with Light Snow 40 4.4 37 2.6 88 88 N N/A 30.12 1020 1 2 N/A
8:55 am 08:55 Cloudy with Light Snow 40 4.6 37 2.8 88 88 N N/A 30.09 1019 1 2 N/A
9:15 am 09:15 Cloudy with Light Snow 40 4.7 37 3 89 89 N N/A 30.09 1019 1 1 N/A
9:35 am 09:35 Cloudy with Light Snow 40 4.7 37 3 89 89 N N/A 30.09 1019 1 1 N/A
9:55 am 09:55 Cloudy with Light Snow 42 5.5 39 3.7 88 88 N N/A 30.09 1019 1 2 N/A
10:15 am 10:15 Cloudy with Light Snow 42 5.8 39 4.1 89 89 N N/A 30.09 1019 1 2 N/A
10:35 am 10:35 Cloudy with Light Snow 43 6.3 40 4.6 89 89 N N/A 30.09 1019 1 2 N/A
10:55 am 10:55 Cloudy with Light Snow 44 6.8 41 5.1 89 89 N N/A 30.09 1019 2 2 N/A
11:15 am 11:15 Cloudy with Light Snow 47 8.1 44 6.4 89 89 N N/A 30.09 1019 2 3 N/A
11:35 am 11:35 Cloudy with Light Snow 47 8.2 44 6.5 89 89 N N/A 30.06 1018 3 4 N/A
11:55 am 11:55 Cloudy with Light Snow 47 8.2 44 6.5 89 89 N N/A 30.06 1018 2 2 N/A
12:15 pm 12:15 Cloudy with Mist and Fog 47 8.2 44 6.5 89 89 N N/A 30.06 1018 2 3 N/A
12:35 pm 12:35 Cloudy with Mist and Fog 49 9.6 46 8 90 90 N N/A 30.06 1018 1 2 N/A
12:55 pm 12:55 Cloudy with Mist and Fog 49 9.6 46 8 90 90 N N/A 30.06 1018 2 3 N/A
1:15 pm 13:15 Cloudy with Mist and Fog 49 9.6 46 8 90 90 N N/A 30.06 1018 2 2 N/A
1:35 pm 13:35 Cloudy with Light Snow 49 9.6 46 8 90 90 NNE 5 7 30.03 1017 1 2 N/A
1:55 pm 13:55 Cloudy with Light Snow 49 9.6 46 8 90 90 NE 5 7 30.03 1017 2 2 N/A
2:15 pm 14:15 Cloudy with Light Snow 49 9.6 46 8 90 90 NE 5 7 30.00 1016 2 2 N/A
2:35 pm 14:35 Cloudy with Light Snow 49 9.6 46 8 90 90 NE 5 7 30.00 1016 2 3 N/A
2:55 pm 14:55 Cloudy with Drizzle 49 9.6 46 8 90 90 NE 3 6 29.97 1015 3 4 N/A
3:15 pm 15:15 Cloudy with Light Rain 49 9.6 46 8 90 90 N N/A 29.97 1015 2 3 N/A
3:35 pm 15:35 Cloudy with Light Rain 49 9.6 46 8 90 90 N N/A 29.94 1014 2 2 N/A
3:55 pm 15:55 Cloudy with Light Rain 49 9.6 46 8 90 90 N N/A 29.94 1014 2 3 N/A
4:15 pm 16:15 Cloudy with Light Rain 49 9.6 46 8 90 90 N N/A 29.94 1014 3 5 N/A
4:35 pm 16:35 Cloudy with Rain 49 9.6 46 8 90 90 NE 5 7 29.94 1014 4 6 N/A
4:55 pm 16:55 Cloudy with Drizzle 49 9.6 46 8 90 90 NNE 5 7 29.94 1014 5 8 N/A
5:15 pm 17:15 Cloudy with Drizzle 49 9.6 46 8 90 90 NNE 3 6 29.94 1014 4 6 N/A
5:35 pm 17:35 Cloudy with Rain 49 9.6 46 8 90 90 NE 5 7 29.94 1014 2 3 N/A
5:55 pm 17:55 Cloudy with Rain 49 9.6 46 8 90 90 NE 5 7 29.94 1014 3 5 N/A
6:15 pm 18:15 Cloudy with Light Rain 49 9.6 46 8 90 90 N N/A 29.94 1014 2 3 N/A
6:35 pm 18:35 Cloudy with Drizzle 49 9.6 46 8 90 90 N N/A 29.97 1015 3 4 N/A
6:55 pm 18:55 Cloudy with Rain 49 9.6 46 8 90 90 N N/A 29.97 1015 1 2 N/A
7:15 pm 19:15 Cloudy with Mist and Fog 49 9.6 46 8 90 90 N N/A 29.97 1015 3 4 N/A
7:35 pm 19:35 Cloudy with Snow 49 9.6 46 8 90 90 N N/A 29.97 1015 2 2 N/A
7:55 pm 19:55 Cloudy with Light Snow 49 9.6 46 8 90 90 N N/A 30.00 1016 2 2 N/A
8:15 pm 20:15 Cloudy with Light Snow 49 9.6 46 8 90 90 N N/A 30.00 1016 2 3 N/A
8:35 pm 20:35 Cloudy with Light Snow 49 9.6 46 8 90 90 N N/A 30.00 1016 1 2 N/A
8:55 pm 20:55 Cloudy with Fog 49 9.6 46 8 90 90 N N/A 30.00 1016 1 1 N/A
9:15 pm 21:15 Cloudy with Fog 49 9.6 46 8 90 90 N N/A 30.03 1017 1 1 N/A
9:35 pm 21:35 Cloudy with Mist and Fog 49 9.6 46 8 90 90 N N/A 30.03 1017 1 2 N/A
9:55 pm 21:55 Cloudy with Mist and Fog 49 9.6 46 8 90 90 N N/A 30.03 1017 2 3 N/A
10:15 pm 22:15 Cloudy with Mist and Fog 49 9.6 46 8 90 90 N N/A 30.06 1018 3 5 N/A
10:35 pm 22:35 Cloudy with Mist and Fog 49 9.6 46 8 90 90 N N/A 30.06 1018 4 6 N/A
10:55 pm 22:55 Cloudy with Mist and Fog 49 9.6 46 8 90 90 N N/A 30.06 1018 5 8 N/A
11:15 pm 23:15 Cloudy with Mist and Fog 49 9.6 46 8 90 90 N N/A 30.06 1018 4 6 N/A
11:35 pm 23:35 Cloudy with Mist and Fog 47 8.2 44 6.6 90 90 N N/A 30.06 1018 1 1 N/A
11:55 pm 23:55 Cloudy with Fog 47 8.1 44 6.5 90 90 N N/A 30.06 1018 1 1 N/A

Powered by AerisWeather